This demonstration page uses our WeatherBlox Daily Observations layout. Learn more.

Left ArrowRight Arrow

34.02893, -84.19858

Hourly Observations for August 9, 2022

Temp ( °F °C ) Dew Point ( °F °C ) Humidity (%) Winds ( mph kmh ) Pressure ( in mb ) Visibility ( mi km ) Precip ( " mm )
12:13 am 00:13 Cloudy 76 24.4 72 22.2 88 88 S 7 11 30.11 1020 10 16 0.00 0.00
12:35 am 00:35 Cloudy 76 24.4 72 22.2 88 88 SW 8 13 30.11 1020 10 16 0.00 0.00
12:53 am 00:53 Cloudy 75 23.9 71 21.7 88 88 S 6 9 30.09 1019 10 16 0.00 0.00
1:53 am 01:53 Mostly Clear 74 23.3 71 21.7 91 91 SW 3 6 30.09 1019 10 16 0.00 0.00
2:53 am 02:53 Clear 73 22.8 71 21.7 94 94 Calm 30.07 1018 10 16 0.00 0.00
3:53 am 03:53 Clear 73 22.8 71 21.7 94 94 WSW 3 6 30.07 1018 10 16 0.00 0.00
4:53 am 04:53 Clear 73 22.8 71 21.7 94 94 W 5 7 30.07 1018 10 16 0.00 0.00
5:50 am 05:50 Mostly Cloudy 72 22 72 22 100 100 SSE 3 6 30.10 1019 10 16 0.00 0.00
5:53 am 05:53 Mostly Cloudy 72 22.2 71 21.7 97 97 SSE 3 6 30.08 1019 10 16 0.00 0.00
6:34 am 06:34 Mostly Cloudy 72 22.2 71 21.7 97 97 SSW 3 6 30.11 1019 10 16 0.00 0.00
6:53 am 06:53 Mostly Clear 72 22.2 70 21.1 93 93 SW 3 6 30.09 1019 10 16 0.00 0.00
7:53 am 07:53 Sunny 73 22.8 70 21.1 90 90 Calm 30.11 1020 10 16 0.00 0.00
8:53 am 08:53 Sunny 74 23.3 70 21.1 87 87 WSW 3 6 30.13 1020 10 16 0.00 0.00
9:53 am 09:53 Mostly Cloudy 79 26.1 72 22.2 79 79 VRB 3 6 30.13 1020 10 16 0.00 0.00
10:53 am 10:53 Sunny 80 26.7 73 22.8 79 79 SSW 6 9 30.13 1020 10 16 0.00 0.00
11:21 am 11:21 Mostly Cloudy 81 27.2 74 23.3 79 79 SSW 7 11 30.13 1020 10 16 0.00 0.00
11:38 am 11:38 Partly Cloudy 82 27.8 74 23.3 77 77 S 5 7 30.12 1020 10 16 0.00 0.00
11:53 am 11:53 Mostly Sunny 83 28.3 74 23.3 74 74 S 7 11 30.12 1020 10 16 0.00 0.00
12:26 pm 12:26 Mostly Cloudy 82 27.8 73 22.8 74 74 SSW 8 13 30.12 1020 10 16 0.00 0.00
12:53 pm 12:53 Mostly Cloudy 82 27.8 73 22.8 74 74 SW 8 13 30.11 1020 10 16 0.00 0.00
1:00 pm 13:00 Mostly Sunny 83 28.3 74 23.3 74 74 SW 9 15 30.10 1019 10 16 0.00 0.00
1:53 pm 13:53 Mostly Sunny 86 30 73 22.8 65 65 S 8 13 30.10 1019 10 16 0.00 0.00
2:53 pm 14:53 Mostly Sunny 86 30 71 21.7 61 61 VRB 7 11 30.09 1019 10 16 0.00 0.00
3:16 pm 15:16 Partly Cloudy with Nearby Thunderstorms 87 30.6 71 21.7 59 59 VRB 3 6 30.07 1018 10 16 0.00 0.00
3:31 pm 15:31 Partly Cloudy 87 30.6 70 21.1 57 57 Calm 30.07 1018 10 16 0.00 0.00
3:53 pm 15:53 Mostly Cloudy with Nearby Thunderstorms 84 28.9 72 22.2 67 67 NNE 10 17 30.06 1018 10 16 0.00 0.00
4:53 pm 16:53 Sunny with Nearby Thunderstorms 81 27.2 72 22.2 74 74 NNE 9 15 30.05 1018 10 16 0.00 0.00
5:53 pm 17:53 Sunny with Nearby Thunderstorms 81 27.2 71 21.7 72 72 NNE 5 7 30.05 1018 10 16 0.00 0.00
6:53 pm 18:53 Mostly Cloudy 81 27.2 72 22.2 74 74 Calm 30.06 1018 10 16 0.00 0.00
7:53 pm 19:53 Partly Cloudy 78 25.6 73 22.8 85 85 SE 3 6 30.07 1018 10 16 0.00 0.00
8:25 pm 20:25 Partly Cloudy with Nearby Thunderstorms 77 25 73 22.8 88 88 Calm 30.09 1019 10 16 0.00 0.00
8:46 pm 20:46 Clear 77 25 73 22.8 88 88 Calm 30.08 1019 10 16 0.00 0.00
8:53 pm 20:53 Clear 77 25 73 22.8 88 88 SSW 3 6 30.09 1019 10 16 0.00 0.00
9:53 pm 21:53 Clear 75 23.9 72 22.2 90 90 Calm 30.10 1019 10 16 0.00 0.00
10:53 pm 22:53 Mostly Cloudy 75 23.9 72 22.2 90 90 Calm 30.11 1020 10 16 0.00 0.00
11:53 pm 23:53 Mostly Cloudy 74 23.3 72 22.2 94 94 S 14 22 30.13 1020 10 16 0.00 0.00

Powered by AerisWeather